Regional Weather Roundup
Issued by NWS

Home | Current Version | Previous Version | Text Only | Print | Product List | Glossary Off
Versions: 1 2 3 4 5 6 7 8 9 10 11 12 13 14 15 16 17 18 19 20 21 22 23 24 25 26 27 28 29 30 31 32 33 34 35 36 37 38 39 40 41 42 43 44 45 46 47 48 49 50

879
ASUS43 KMKX 090221
RWRWI

WISCONSIN REGIONAL WEATHER ROUNDUP
NATIONAL WEATHER SERVICE MILWAUKEE/SULLIVAN WI
800 PM CST MON FEB 08 2016

NOTE: "FAIR" INDICATES FEW OR NO CLOUDS BELOW 12,000 FEET WITH NO
SIGNIFICANT WEATHER AND/OR OBSTRUCTIONS TO VISIBILITY.

WIZ001-002-006>008-014>016-023>028-090300-
NORTHWEST WISCONSIN

CITY           SKY/WX    TMP DP  RH WIND       PRES   REMARKS
SUPERIOR ARPT  CLOUDY    10   1  67 N12G17    30.00R WCI  -4
ASHLAND        CLOUDY    11   6  81 NW13G20   29.91R HAZE    WCI  -4
HAYWARD        CLOUDY     9   2  73 VRB7G16   29.89S WCI  -2
SIREN          CLOUDY    11   3  70 N10       29.95S WCI  -2
CUMBERLAND     FLURRIES  10   3  72 NW16      29.89S WCI  -7
RICE LAKE      CLOUDY    12   5  74 NW10G17   29.91S WCI  -2
CHETEK         LGT SNOW  11   6  78 NW6       29.89S WCI   2
LADYSMITH      PTCLDY    11   4  75 NW14      29.87S WCI  -5
EAU CLAIRE     LGT SNOW  13   6  74 NW13G22   29.89S WCI  -2
MENOMONIE      LGT SNOW  14   7  75 NW17      29.91S WCI  -3
NEW RICHMOND   CLOUDY    13   6  74 NW16      29.93F WCI  -4
OSCEOLA        FLURRIES  13   6  72 NW14G24   29.98S WCI  -2
$$

WIZ003>005-009-010-017-018-090300-
NORTH CENTRAL WISCONSIN

CITY           SKY/WX    TMP DP  RH WIND       PRES   REMARKS
MANITOWISH WTR LGT SNOW  11   8  87 NW7       29.76F WCI   0
ARBOR VITAE    LGT SNOW  13   9  83 NW6       29.76S WCI   4
WOODRUFF       LGT SNOW  13   9  83 NW6       29.76S WCI   4
RHINELANDER    LGT SNOW  13   6  74 NW7       29.75S WCI   3
EAGLE RIVER    FLURRIES  12   6  76 NW8       29.73F WCI   0
LAND O LAKES   LGT SNOW  12   8  85 NW8       29.74S WCI   1
PHILLIPS       FLURRIES  10   5  80 NW8       29.80S WCI  -3
TOMAHAWK       LGT SNOW  11   7  81 NW8       29.78S WCI   0
MEDFORD        LGT SNOW  11   6  81 NW14G20   29.78S WCI  -5
MERRILL        LGT SNOW  14   9  79 N8        29.78S WCI   3
$$

WIZ029-030-035-036-043>047-090300-
CENTRAL WISCONSIN

CITY           SKY/WX    TMP DP  RH WIND       PRES   REMARKS
WAUSAU         LGT SNOW  16  10  77 N10G22    29.76S WCI   4
MOSINEE        LGT SNOW  16  12  86 NW15G21   29.78R WCI   1
MARSHFIELD     LGT SNOW  13   6  74 NW17      29.79S WCI  -4
STEVENS POINT  LGT SNOW  14  10  84 W7        29.78S WCI   4
WAUPACA        FLURRIES  23  17  78 W7        29.77S WCI  14
WAUTOMA        FLURRIES  17  11  77 NW14      29.79S WCI   3
WISC RAPIDS    LGT SNOW  14   8  77 NW14G22   29.81S WCI  -1
CAMP DOUGLAS   FLURRIES  14  14 100 NW13      29.82F WCI   0
$$

WIZ011>013-019>022-031-037>040-048>050-090300-
NORTHEAST WISCONSIN

CITY           SKY/WX    TMP DP  RH WIND       PRES   REMARKS
ANTIGO         LGT SNOW  14   9  81 N14       29.73S WCI  -1
SHAWANO        CLOUDY    22  15  74 NW12      29.76R WCI  11
OCONTO         CLOUDY    20  15  82 N8        29.75F WCI  10
STURGEON BAY   CLOUDY    19  14  79 N14       29.75S WCI   6
GREEN BAY      LGT SNOW  24  20  84 N13       29.74S FOG     WCI  12
MANITOWOC      LGT SNOW  25  23  92 N13       29.73S FOG     WCI  14
APPLETON       LGT SNOW  23  16  74 NW12G17   29.72R WCI  12
CLINTONVILLE   FLURRIES  21  14  73 NW12G17   29.76S WCI   9
OSHKOSH        LGT SNOW  20  15  81 W13       29.73F WCI   7
$$

WIZ032>034-041-042-053>061-090300-
SOUTHWEST WISCONSIN

CITY           SKY/WX    TMP DP  RH WIND       PRES   REMARKS
LA CROSSE      LGT SNOW  15  10  80 NW12      29.90S WCI   2
SPARTA         LGT SNOW  14  11  85 NW10G17   29.87F WCI   2
VIROQUA        CLOUDY    12   9  87 NW13      29.82F WCI  -2
BOSCOBEL       FLURRIES  16   9  74 NW7       29.88S WCI   6
PRAIRIE DU CHI MIX PCPN  16  10  77 NW10      29.89F WCI   3
PLATTEVILLE    CLOUDY    16  10  78 NW14      29.83S WCI   2
$$

WIZ056-057-062-063-064-067-068-090300-
SOUTH CENTRAL WISCONSIN

CITY           SKY/WX    TMP DP  RH WIND       PRES   REMARKS
REEDSBURG      LGT SNOW  14   9  81 NW8       29.82S WCI   3
BARABOO/DELLS  CLOUDY    15   8  75 NW9G16    29.81S HAZE    WCI   3
LONE ROCK      FLURRIES  16   8  71 NW14      29.85S WCI   2
MINERAL POINT  CLOUDY    18  10  73 NW14      29.80S WCI   4
MADISON        FLURRIES  18   9  68 NW15G23   29.78S WCI   4
MIDDLETON      CLOUDY    19  11  69 NW15G21   29.80S WCI   5
WATERTOWN      CLOUDY    20  18  91 NW9G18    29.76S WCI   9
MONROE         CLOUDY    21  12  68 NW15G21   29.77S WCI   8
JANESVILLE     CLOUDY    23  16  74 NW15G22   29.77S WCI  10
$$

WIZ051-052-058>065-066-070>072-090300-
SOUTHEAST WISCONSIN

CITY           SKY/WX    TMP DP  RH WIND       PRES   REMARKS
MILWAUKEE      LGT SNOW  23  19  85 NW15      29.72S FOG     WCI  10
WAUKESHA       NOT AVBL
MILWAUKEE/TIMM LGT SNOW  23  18  80 NW14      29.74S WCI  11
RACINE         LGT SNOW  23  19  85 NW10      29.73S FOG     WCI  12
BURLINGTON     MOCLDY    21  16  83 NW13G18   29.74S WCI   8
KENOSHA        CLOUDY    24  18  77 NW16G25   29.73S WCI  11
FOND DU LAC    LGT SNOW  20  15  81 NW18      29.74S WCI   5
SHEBOYGAN      LGT SNOW  26  22  84 NW9       29.71F FOG     WCI  17
WEST BEND      LGT SNOW  23  19  86 NW17G23   29.72S WCI   9
JUNEAU         CLOUDY    19  14  80 NW13      29.76S WCI   6
$$

LSZ147-162-090300-
LAKE SUPERIOR

STATION/POSITION TIME  TEMP    WIND        PRES    WAVE
                       AIR SEA DIR/SP/G            HT/PER
                 (UTC) (F)     (DEG/KT/KT) (MB)    (FT/S)
DEVILS ISLAND    0200   14     350/ 26/ 29 1014.2R
PORT WING        0121   14     320/ 19/ 27 1013.9F
SAXON HARBOR     0100   17                 1011.5
$$

LMZ867-665-643>646-090300-
LAKE MICHIGAN

STATION/POSITION TIME  TEMP    WIND        PRES    WAVE
                       AIR SEA DIR/SP/G            HT/PER
                 (UTC) (F)     (DEG/KT/KT) (MB)    (FT/S)
CHAMBERS ISLAND  0100   22     310/ 21/ 26 1007.1S
NORTHPORT PIER   0202   22     340/ 17/ 25 1006.8S
ALGOMA LAKESHORE 0111          350/ 14/ 19   N/A
KEWAUNEE LAKESHO 0100   25     350/  8/ 15 1006.0R
SHEBOYGAN LAKESH 0200   26     320/  8/  9 1007.4R
PORT WASHINGTON  0100   26     310/  6/ 12 1007.5R
MILWAUKEE LAKESH 0210   24     300/ 16/ 20   N/A
KENOSHA   LAKESH 0200   24     300/ 14/ 20 1006.8S
$$

TC  - TEMPERATURE IN CELSIUS
VSB - VISIBILITY IN STATUTE MILES
WCI - WIND CHILL INDEX
HX  - HEAT INDEX





USA.gov is the U.S. government's official web portal to all federal, state and local government web resources and services.